Regional Weather Roundup
Issued by NWS Cleveland, OH

Home | Current Version | Previous Version | Graphics & Text | Print | Product List | Glossary On
Versions: 1 2 3 4 5 6 7 8 9 10 11 12 13 14 15 16 17 18 19 20 21 22 23 24 25 26 27 28 29 30 31 32 33 34 35 36 37 38 39 40 41 42 43 44 45 46 47 48 49 50
000
ASUS41 KCLE 260312
RWRCLE
OHIO REGIONAL WEATHER ROUNDUP
NATIONAL WEATHER SERVICE WILMINGTON, OH
1100 PM EDT WED MAY 25 2016

NOTE: "FAIR" INDICATES FEW OR NO CLOUDS BELOW 12,000 FEET WITH NO
SIGNIFICANT WEATHER AND/OR OBSTRUCTIONS TO VISIBILITY.

OHZ001>008-015>018-024>027-034-035-043-044-260400-
   NORTHWEST OHIO

CITY           SKY/WX    TMP DP  RH WIND       PRES   REMARKS
DEFIANCE       FAIR      77  59  53 S14       30.00R
FINDLAY        FAIR      72  58  61 S12       30.03R
TOLEDO EXPRESS FAIR      75  58  55 S9        30.00R
TOLEDO EXEC    FAIR      74  58  57 S12       30.02R
LIMA           FAIR      72  61  68 S7        30.04R
$$

OHZ009>014-019>023-028>033-038-089-260400-
   NORTHEAST OHIO

CITY           SKY/WX    TMP DP  RH WIND       PRES   REMARKS
CLE-HOPKINS    CLOUDY    75  56  51 S13       30.09R
CLE-LAKEFRONT  MOCLDY    77  56  48 S10       30.06R
CUY CO. ARPT   MOCLDY    75  59  57 S12       30.09R
LORAIN-ELYRIA  MOCLDY    72  57  59 S9        30.07S
ASHTABULA      FAIR      70  57  63 S6        30.10R
AKRON-CANTON   MOCLDY    71  56  58 S8        30.11R
WOOSTER        FAIR      64  57  78 S5        30.11R
MANSFIELD      FAIR      69  57  65 S8        30.09S
YOUNGSTOWN     CLOUDY    71  55  56 S5        30.12R
$$

OHZ042-051>053-060>062-070>072-077>081-260400-
  SOUTHWEST OHIO

CITY           SKY/WX    TMP DP  RH WIND       PRES   REMARKS
CINC-COVINGTON MOCLDY    71  63  75 S6        30.08R
CINC-LUNKEN    FAIR      71  64  78 CALM      30.08R
HAMILTON       FAIR      74  64  71 S6        30.07R
DAYTON         FAIR      73  61  65 SW10      30.08R
WRIGHT-PAT AFB FAIR      74  63  69 SW8       30.06R
DAYTON GENERAL FAIR      73  61  65 S7        30.07R
WILMINGTON     FAIR      69  62  78 S7        30.09R
$$

OHZ036-037-039>041-045>050-054>059-063>069-073>076-082>088-260400-
  CENTRAL AND SOUTHEAST OHIO

CITY           SKY/WX    TMP DP  RH WIND       PRES   REMARKS
COLUMBUS       MOCLDY    72  60  66 S6        30.08R
OSU AIRPORT    FAIR      73  61  65 S9        30.07S
BOLTON FIELD   FAIR      71  63  77 S10       30.09R
RICKENBACK AFB FAIR      70  62  75 S6        30.08S
NEWARK         MOCLDY    73  60  63 S3        30.09R
MARION         FAIR      69  58  67 SE6       30.08R
LANCASTER      MOCLDY    72  60  66 S6        30.09S
ZANESVILLE     MOCLDY    71  60  68 S5        30.10R
NEW PHILLY     CLOUDY    71  59  65 CALM      30.11R
$$




USA.gov is the U.S. government's official web portal to all federal, state and local government web resources and services.